Regional Weather Roundup
Issued by NWS Northern Indiana

Home | Current Version | Previous Version | Graphics & Text | Print | Product List | Glossary On
Versions: 1 2 3 4 5 6 7 8 9 10 11 12 13 14 15 16 17 18 19 20 21 22 23 24 25 26 27 28 29 30 31 32 33 34 35 36 37 38 39 40 41 42 43 44 45 46 47 48 49 50
000
ASUS43 KIWX 011000
RWRIWX

KIWX WEATHER ROUNDUP
NATIONAL WEATHER SERVICE NORTHERN INDIANA
600 AM EDT SAT AUG 01 2015

NOTE: "FAIR" INDICATES FEW OR NO CLOUDS BELOW 12,000 FEET WITH NO
SIGNIFICANT WEATHER AND/OR OBSTRUCTIONS TO VISIBILITY.

* THESE STATIONS ARE NOT UNDER NWS QUALITY CONTROL. THEY ALSO MAY NOT
  REPORT WEATHER SUCH AS PRECIPITATION OR FOG.

INZ001>027-011100-
NORTHERN INDIANA

CITY           SKY/WX    TMP DP  RH WIND       PRES   REMARKS
GARY*          CLEAR     63  55  77 W8        29.99S
SOUTH BEND     CLEAR     60  56  86 SW3       29.98S
GOSHEN         CLEAR     59  55  87 SW3       29.97S
MONTICELLO*    CLEAR     59  57  94 NW3       29.99S
ANGOLA*        CLEAR     61  55  82 CALM      29.96R
FORT WAYNE     PTCLDY    61  56  83 W8        29.97S

$$
INZ028>050-011100-
CENTRAL INDIANA

CITY           SKY/WX    TMP DP  RH WIND       PRES   REMARKS
LAFAYETTE      CLEAR     57  56  96 CALM      30.00S
KOKOMO*        CLEAR     59  54  82 W6        30.00R
MUNCIE*        CLEAR     58  57  97 CALM      29.99R
INDIANAPOLIS   PTCLDY    63  58  83 W6        29.98S

$$
MIZ043>046-050>051-056>058-064>065-071>073-077>080-011100-
SOUTHWEST LOWER MICHIGAN

CITY           SKY/WX    TMP DP  RH WIND       PRES   REMARKS
BATTLE CREEK   CLEAR     62  58  86 W7        29.95R
BENTON HARBOR  CLEAR     65  59  81 W5        29.95S
COLDWATER*     CLEAR     56  54  92 SW5       29.95S
HILLSDALE*     CLEAR     62  58  87 W6        29.95R
HOLLAND        CLEAR     65  61  87 W6        29.94S
GRAND RAPIDS   CLEAR     62  58  86 W7        29.93S
KALAMAZOO      CLEAR     61  56  83 W5        29.96R
STURGIS*       CLEAR     57  55  94 CALM      29.96R
THREE RIVERS*  FAIR      61  56  85 W3        29.96R

$$
OHZ001>008-015>018-024>025-011100-
NORTHWEST OHIO

CITY           SKY/WX    TMP DP  RH WIND       PRES   REMARKS
DEFIANCE       CLEAR     60  54  80 SW3       29.95R
FINDLAY        CLEAR     62  54  74 W7        29.94R
TOLEDO EXPRESS CLEAR     61  54  77 W6        29.93R
TOLEDO METCALF CLEAR     63  53  70 W3        29.93R
LIMA           CLEAR     59  55  87 W6        29.96S

$$
AND FOR LAKE MICHIGAN COASTAL AND OPEN LAKE BUOY OBSERVATIONS

STATION/POSITION TEMP    WIND        PRES    VSBY  WAVE
                 AIR SEA DIR/SP/G                  HT/PER
                 (F)     (DEG/KT/KT) (MB)    (MI)  (FT/S)
CALUMET HARBOR    69     250/  3/  5   N/A
MICHIGAN CITY     73     280/ 14/ 16   N/A
BURNS HARBOR      73     280/  9/ 11 1015.6S
SAINT JOSEPH      72     290/  9/ 11 1015.6R
4 MI NW BRIDGMAN  73 74  330/ 12/ 14   N/A           3/ 4
MICHIGAN CITY     74 74  320/ 12/ 16   N/A           3/ 4

$$
&&


USA.gov is the U.S. government's official web portal to all federal, state and local government web resources and services.